Torna al catalogo

STARLINK-37508

AttivoComunicazioniVLEO
NORAD 69257·PAYLOAD·🇺🇸 United States

Lanciato May 29, 2026 da Cape Canaveral Space Force Station

Loading…

Prossimi Passaggi (prossime 24 ore)

TLE

AggiornatoSource: CelesTrak SupGP

Epoca: Sep 14, 2026, 21:18 UTC

1 69257C 26117V   26257.88798611 -.00002909  00000+0 -85911-4 0  2572
2 69257  53.1583 179.6236 0001571  86.2623 150.7842 15.34405824    15

Traccia STARLINK-37508 in tempo reale con AllMySat

Download on the App Store